owner,sensor,date,latitude,longitude,vertical_datum,wind_speed,wind_to_direction,wind_speed_of_gust,qcFlag 
TABS,ioos:station:wmo:42045:1,2006-12-01T00:00:00Z,26.2168,-96.4998,4.0,11.97401353,308.9661088,17.93,'11111222,11111222,11111222' 
TABS,ioos:station:wmo:42045:1,2006-12-01T00:30:00Z,26.2168,-96.4998,4.0,11.73734638,313.1010962,17.49,'11111222,11111222,11111222' 
TABS,ioos:station:wmo:42045:1,2006-12-01T01:00:00Z,26.2168,-96.4998,4.0,11.66499464,320.879814,17.4,'11111222,11111222,11111222' 
TABS,ioos:station:wmo:42045:1,2006-12-01T01:30:00Z,26.2168,-96.4998,4.0,11.57578507,321.6647332,17.7,'11111222,11111222,11111222' 
TABS,ioos:station:wmo:42045:1,2006-12-01T02:00:00Z,26.2168,-96.4998,4.0,12.09483361,322.4572803,19.12,'11111222,11111222,11111222' 
TABS,ioos:station:wmo:42045:1,2006-12-01T02:30:00Z,26.2168,-96.4998,4.0,11.91651375,319.9357534,17.88,'11111222,11111222,11111222' 
TABS,ioos:station:wmo:42045:1,2006-12-01T03:00:00Z,26.2168,-96.4998,4.0,11.64831748,328.0153368,16.55,'11111222,11111222,11111222' 
TABS,ioos:station:wmo:42045:1,2006-12-01T03:30:00Z,26.2168,-96.4998,4.0,12.35420981,329.8235428,18.4,'11111222,11111222,11111222' 
TABS,ioos:station:wmo:42045:1,2006-12-01T04:00:00Z,26.2168,-96.4998,4.0,12.73990973,324.8752141,17.84,'11111222,11111222,11111222' 
TABS,ioos:station:wmo:42045:1,2006-12-01T04:30:00Z,26.2168,-96.4998,4.0,12.42238302,335.4566457,17.22,'11111222,11111222,11111222' 
TABS,ioos:station:wmo:42045:1,2006-12-01T05:00:00Z,26.2168,-96.4998,4.0,11.71010248,348.622714,18.0,'11111222,11111222,11111222' 
TABS,ioos:station:wmo:42045:1,2006-12-01T05:30:00Z,26.2168,-96.4998,4.0,11.96755614,333.1778711,17.11,'11111222,11111222,11111222' 
TABS,ioos:station:wmo:42045:1,2006-12-01T06:00:00Z,26.2168,-96.4998,4.0,11.48377116,328.6767288,18.03,'11111222,11111222,11111222' 
TABS,ioos:station:wmo:42045:1,2006-12-01T06:30:00Z,26.2168,-96.4998,4.0,12.09120755,338.7616016,16.88,'11111222,11111222,11111222' 
TABS,ioos:station:wmo:42045:1,2006-12-01T07:00:00Z,26.2168,-96.4998,4.0,11.7048067,337.7075713,16.66,'11111222,11111222,11111222' 
TABS,ioos:station:wmo:42045:1,2006-12-01T07:30:00Z,26.2168,-96.4998,4.0,11.72818827,348.1916731,17.03,'11111222,11111222,11111222' 
TABS,ioos:station:wmo:42045:1,2006-12-01T08:00:00Z,26.2168,-96.4998,4.0,11.2832708,333.6391836,14.87,'11111222,11111222,11111222' 
TABS,ioos:station:wmo:42045:1,2006-12-01T08:30:00Z,26.2168,-96.4998,4.0,11.22178239,348.5897514,16.08,'11111222,11111222,11111222' 
TABS,ioos:station:wmo:42045:1,2006-12-01T09:00:00Z,26.2168,-96.4998,4.0,11.06581222,354.2428416,15.38,'11111222,11111222,11111222' 
TABS,ioos:station:wmo:42045:1,2006-12-01T09:30:00Z,26.2168,-96.4998,4.0,10.81998614,340.5098655,15.05,'11111222,11111222,11111222' 
TABS,ioos:station:wmo:42045:1,2006-12-01T10:00:00Z,26.2168,-96.4998,4.0,11.32650873,354.2741094,15.99,'11111222,11111222,11111222' 
TABS,ioos:station:wmo:42045:1,2006-12-01T10:30:00Z,26.2168,-96.4998,4.0,10.98208086,339.7002563,15.67,'11111222,11111222,11111222' 
TABS,ioos:station:wmo:42045:1,2006-12-01T11:00:00Z,26.2168,-96.4998,4.0,10.67316729,358.6039207,14.97,'11111222,11111222,11111222' 
TABS,ioos:station:wmo:42045:1,2006-12-01T12:00:00Z,26.2168,-96.4998,4.0,11.00980018,9.462089622,15.13,'11111222,11111222,11111222' 
TABS,ioos:station:wmo:42045:1,2006-12-01T12:30:00Z,26.2168,-96.4998,4.0,9.886000202,16.2715475,13.81,'11111222,11111222,11111222' 
TABS,ioos:station:wmo:42045:1,2006-12-01T13:00:00Z,26.2168,-96.4998,4.0,9.749179453,7.307026673,13.24,'11111222,11111222,11111222' 
TABS,ioos:station:wmo:42045:1,2006-12-01T13:30:00Z,26.2168,-96.4998,4.0,9.323529375,17.54073806,13.69,'11111222,11111222,11111222' 
TABS,ioos:station:wmo:42045:1,2006-12-01T14:00:00Z,26.2168,-96.4998,4.0,9.61611668,20.45118181,12.73,'11111222,11111222,11111222' 
TABS,ioos:station:wmo:42045:1,2006-12-01T14:30:00Z,26.2168,-96.4998,4.0,8.374777609,14.16874399,12.11,'11111222,11111222,11111222' 
TABS,ioos:station:wmo:42045:1,2006-12-01T15:00:00Z,26.2168,-96.4998,4.0,7.971060155,15.7970467,10.87,'11111222,11111222,11111222' 
TABS,ioos:station:wmo:42045:1,2006-12-01T15:30:00Z,26.2168,-96.4998,4.0,7.422513052,19.19143225,10.56,'11111222,11111222,11111222' 
TABS,ioos:station:wmo:42045:1,2006-12-01T16:00:00Z,26.2168,-96.4998,4.0,7.68141263,25.03014296,10.88,'11111222,11111222,11111222' 
TABS,ioos:station:wmo:42045:1,2006-12-01T16:30:00Z,26.2168,-96.4998,4.0,6.903079023,22.66429398,10.11,'11111222,11111222,11111222' 
TABS,ioos:station:wmo:42045:1,2006-12-01T17:00:00Z,26.2168,-96.4998,4.0,6.954343966,30.69501268,10.25,'11111222,11111222,11111222' 
TABS,ioos:station:wmo:42045:1,2006-12-01T17:30:00Z,26.2168,-96.4998,4.0,6.5659272,28.86786124,9.19,'11111222,11111222,11111222' 
TABS,ioos:station:wmo:42045:1,2006-12-01T18:00:00Z,26.2168,-96.4998,4.0,6.07454525,25.34141983,8.63,'11111222,11111222,11111222' 
TABS,ioos:station:wmo:42045:1,2006-12-01T18:30:00Z,26.2168,-96.4998,4.0,5.772936861,31.54219788,9.2,'11111222,11111222,11111222' 
TABS,ioos:station:wmo:42045:1,2006-12-01T19:00:00Z,26.2168,-96.4998,4.0,4.605659562,24.2274782,6.95,'11111222,11111222,11111222' 
TABS,ioos:station:wmo:42045:1,2006-12-01T19:30:00Z,26.2168,-96.4998,4.0,5.352504087,31.16541199,7.89,'11111222,11111222,11111222' 
TABS,ioos:station:wmo:42045:1,2006-12-01T20:00:00Z,26.2168,-96.4998,4.0,5.564862981,35.86054404,8.66,'11111222,11111222,11111222' 
TABS,ioos:station:wmo:42045:1,2006-12-01T20:30:00Z,26.2168,-96.4998,4.0,5.104076802,36.55528632,7.74,'11111222,11111222,11111222' 
TABS,ioos:station:wmo:42045:1,2006-12-01T21:00:00Z,26.2168,-96.4998,4.0,4.440022522,38.59904771,6.7,'11111222,11111222,11111222' 
TABS,ioos:station:wmo:42045:1,2006-12-01T21:30:00Z,26.2168,-96.4998,4.0,4.360332556,32.92442397,6.28,'11111222,11111222,11111222' 
TABS,ioos:station:wmo:42045:1,2006-12-01T22:00:00Z,26.2168,-96.4998,4.0,3.93547964,26.5647786,6.87,'11111222,11111222,11111222' 
TABS,ioos:station:wmo:42045:1,2006-12-01T22:30:00Z,26.2168,-96.4998,4.0,3.716947672,34.58762162,6.07,'11111222,11111222,11111222' 
TABS,ioos:station:wmo:42045:1,2006-12-01T23:00:00Z,26.2168,-96.4998,4.0,3.559508393,57.73833594,6.31,'11111222,11111222,11111222' 
TABS,ioos:station:wmo:42045:1,2006-12-01T23:30:00Z,26.2168,-96.4998,4.0,3.191880324,42.58732529,5.78,'11111222,11111222,11111222' 
TABS,ioos:station:wmo:42045:1,2006-12-02T00:00:00Z,26.2168,-96.4998,4.0,3.760053191,53.43452885,5.59,'11111222,11111222,11111222' 
TABS,ioos:station:wmo:42045:1,2006-12-02T00:30:00Z,26.2168,-96.4998,4.0,3.176476035,65.04812519,5.51,'11111222,11111222,11111222' 
TABS,ioos:station:wmo:42045:1,2006-12-02T01:00:00Z,26.2168,-96.4998,4.0,4.018084121,53.50051579,6.64,'11111222,11111222,11111222' 
TABS,ioos:station:wmo:42045:1,2006-12-02T01:30:00Z,26.2168,-96.4998,4.0,3.797486011,68.36632468,6.22,'11111222,11111222,11111222' 
TABS,ioos:station:wmo:42045:1,2006-12-02T02:00:00Z,26.2168,-96.4998,4.0,3.826329834,86.70347082,5.56,'11111222,11111222,11111222' 
TABS,ioos:station:wmo:42045:1,2006-12-02T02:30:00Z,26.2168,-96.4998,4.0,3.126419678,76.49674926,5.94,'11111222,11111222,11111222' 
TABS,ioos:station:wmo:42045:1,2006-12-02T03:00:00Z,26.2168,-96.4998,4.0,3.469538874,79.36980423,5.54,'11111222,11111222,11111222' 
TABS,ioos:station:wmo:42045:1,2006-12-02T03:30:00Z,26.2168,-96.4998,4.0,3.29006079,90.34871842,5.91,'11111222,11111222,11111222' 
TABS,ioos:station:wmo:42045:1,2006-12-02T04:00:00Z,26.2168,-96.4998,4.0,2.859545418,98.24384861,4.73,'11111222,11111222,11111222' 
TABS,ioos:station:wmo:42045:1,2006-12-02T04:30:00Z,26.2168,-96.4998,4.0,3.288419073,106.0654444,5.35,'11111222,11111222,11111222' 
TABS,ioos:station:wmo:42045:1,2006-12-02T05:00:00Z,26.2168,-96.4998,4.0,3.224903099,119.7452327,5.46,'11111222,11111222,11111222' 
TABS,ioos:station:wmo:42045:1,2006-12-02T05:30:00Z,26.2168,-96.4998,4.0,2.668651345,111.0841262,4.94,'11111222,11111222,11111222' 
TABS,ioos:station:wmo:42045:1,2006-12-02T06:00:00Z,26.2168,-96.4998,4.0,3.769575573,119.2173509,5.24,'11111222,11111222,11111222' 
TABS,ioos:station:wmo:42045:1,2006-12-02T06:30:00Z,26.2168,-96.4998,4.0,2.511433853,136.7751059,4.44,'11111222,11111222,11111222' 
TABS,ioos:station:wmo:42045:1,2006-12-02T07:00:00Z,26.2168,-96.4998,4.0,3.448506923,154.4012043,5.41,'11111222,11111222,11111222' 
TABS,ioos:station:wmo:42045:1,2006-12-02T07:30:00Z,26.2168,-96.4998,4.0,2.64620483,124.5311659,4.08,'11111222,11111222,11111222' 
TABS,ioos:station:wmo:42045:1,2006-12-02T08:00:00Z,26.2168,-96.4998,4.0,3.462441335,140.9786846,5.52,'11111222,11111222,11111222' 
TABS,ioos:station:wmo:42045:1,2006-12-02T08:30:00Z,26.2168,-96.4998,4.0,2.504156545,126.2295729,5.34,'11111222,11111222,11111222' 
TABS,ioos:station:wmo:42045:1,2006-12-02T09:00:00Z,26.2168,-96.4998,4.0,2.202044505,120.8748596,3.64,'11111222,11111222,11111222' 
TABS,ioos:station:wmo:42045:1,2006-12-02T09:30:00Z,26.2168,-96.4998,4.0,3.803380076,122.4368757,5.26,'11111222,11111222,11111222' 
TABS,ioos:station:wmo:42045:1,2006-12-02T10:00:00Z,26.2168,-96.4998,4.0,4.052776826,104.1394962,6.37,'11111222,11111222,11111222' 
TABS,ioos:station:wmo:42045:1,2006-12-02T10:30:00Z,26.2168,-96.4998,4.0,3.697688467,109.7584297,5.32,'11111222,11111222,11111222' 
TABS,ioos:station:wmo:42045:1,2006-12-02T11:00:00Z,26.2168,-96.4998,4.0,4.016590594,109.3375457,6.35,'11111222,11111222,11111222' 
TABS,ioos:station:wmo:42045:1,2006-12-02T11:30:00Z,26.2168,-96.4998,4.0,3.983616447,105.4321082,5.38,'11111222,11111222,11111222' 
TABS,ioos:station:wmo:42045:1,2006-12-02T12:00:00Z,26.2168,-96.4998,4.0,4.927443556,110.6789026,6.62,'11111222,11111222,11111222' 
TABS,ioos:station:wmo:42045:1,2006-12-02T12:30:00Z,26.2168,-96.4998,4.0,4.7786609,114.7420071,6.95,'11111222,11111222,11111222' 
TABS,ioos:station:wmo:42045:1,2006-12-02T13:00:00Z,26.2168,-96.4998,4.0,4.971136691,108.6540112,7.18,'11111222,11111222,11111222' 
TABS,ioos:station:wmo:42045:1,2006-12-02T13:30:00Z,26.2168,-96.4998,4.0,4.183897704,104.534842,6.67,'11111222,11111222,11111222' 
TABS,ioos:station:wmo:42045:1,2006-12-02T14:00:00Z,26.2168,-96.4998,4.0,4.760168064,90.4818856,6.55,'11111222,11111222,11111222' 
TABS,ioos:station:wmo:42045:1,2006-12-02T14:30:00Z,26.2168,-96.4998,4.0,5.350149531,98.60000605,8.24,'11111222,11111222,11111222' 
TABS,ioos:station:wmo:42045:1,2006-12-02T15:00:00Z,26.2168,-96.4998,4.0,5.030487054,89.20227564,6.9,'11111222,11111222,11111222' 
TABS,ioos:station:wmo:42045:1,2006-12-02T15:30:00Z,26.2168,-96.4998,4.0,4.819221929,103.8059508,7.81,'11111222,11111222,11111222' 
TABS,ioos:station:wmo:42045:1,2006-12-02T16:00:00Z,26.2168,-96.4998,4.0,5.960486557,105.2723655,8.33,'11111222,11111222,11111222' 
TABS,ioos:station:wmo:42045:1,2006-12-02T16:30:00Z,26.2168,-96.4998,4.0,5.770207969,96.76825117,7.74,'11111222,11111222,11111222' 
TABS,ioos:station:wmo:42045:1,2006-12-02T17:00:00Z,26.2168,-96.4998,4.0,6.335053275,103.8830831,8.7,'11111222,11111222,11111222' 
TABS,ioos:station:wmo:42045:1,2006-12-02T17:30:00Z,26.2168,-96.4998,4.0,6.326073032,99.462721,9.01,'11111222,11111222,11111222' 
TABS,ioos:station:wmo:42045:1,2006-12-02T18:00:00Z,26.2168,-96.4998,4.0,6.638531464,101.2934006,8.75,'11111222,11111222,11111222' 
TABS,ioos:station:wmo:42045:1,2006-12-02T18:30:00Z,26.2168,-96.4998,4.0,6.541230771,104.2490727,8.94,'11111222,11111222,11111222' 
TABS,ioos:station:wmo:42045:1,2006-12-02T19:00:00Z,26.2168,-96.4998,4.0,7.051652289,98.72803044,9.58,'11111222,11111222,11111222' 
TABS,ioos:station:wmo:42045:1,2006-12-02T19:30:00Z,26.2168,-96.4998,4.0,7.205733828,101.9340981,8.94,'11111222,11111222,11111222' 
TABS,ioos:station:wmo:42045:1,2006-12-02T20:00:00Z,26.2168,-96.4998,4.0,7.133056848,107.0381489,9.41,'11111222,11111222,11111222' 
TABS,ioos:station:wmo:42045:1,2006-12-02T20:30:00Z,26.2168,-96.4998,4.0,8.355124176,106.7653095,10.88,'11111222,11111222,11111222' 
TABS,ioos:station:wmo:42045:1,2006-12-02T21:00:00Z,26.2168,-96.4998,4.0,8.234099829,100.3550331,10.72,'11111222,11111222,11111222' 
TABS,ioos:station:wmo:42045:1,2006-12-02T21:30:00Z,26.2168,-96.4998,4.0,8.421715977,107.7683778,11.04,'11111222,11111222,11111222' 
TABS,ioos:station:wmo:42045:1,2006-12-02T22:00:00Z,26.2168,-96.4998,4.0,7.913918119,102.0344713,10.21,'11111222,11111222,11111222' 
TABS,ioos:station:wmo:42045:1,2006-12-02T22:30:00Z,26.2168,-96.4998,4.0,8.406003807,99.93335722,10.69,'11111222,11111222,11111222' 
TABS,ioos:station:wmo:42045:1,2006-12-02T23:00:00Z,26.2168,-96.4998,4.0,8.389666263,104.5666716,11.03,'11111222,11111222,11111222' 
TABS,ioos:station:wmo:42045:1,2006-12-02T23:30:00Z,26.2168,-96.4998,4.0,8.043065336,98.72489881,10.78,'11111222,11111222,11111222' 
TABS,ioos:station:wmo:42045:1,2006-12-03T00:00:00Z,26.2168,-96.4998,4.0,8.452987638,96.99931154,11.06,'11111222,11111222,11111222' 
TABS,ioos:station:wmo:42045:1,2006-12-03T00:30:00Z,26.2168,-96.4998,4.0,8.455258719,99.87491278,10.5,'11111222,11111222,11111222' 
TABS,ioos:station:wmo:42045:1,2006-12-03T01:00:00Z,26.2168,-96.4998,4.0,8.096221341,101.9765254,10.23,'11111222,11111222,11111222' 
TABS,ioos:station:wmo:42045:1,2006-12-03T01:30:00Z,26.2168,-96.4998,4.0,7.718562042,99.62136668,9.89,'11111222,11111222,11111222' 
TABS,ioos:station:wmo:42045:1,2006-12-03T02:00:00Z,26.2168,-96.4998,4.0,7.533319322,106.5830681,10.03,'11111222,11111222,11111222' 
TABS,ioos:station:wmo:42045:1,2006-12-03T02:30:00Z,26.2168,-96.4998,4.0,8.316615898,104.2705582,10.62,'11111222,11111222,11111222' 
TABS,ioos:station:wmo:42045:1,2006-12-03T03:00:00Z,26.2168,-96.4998,4.0,8.093911292,104.6718884,10.43,'11111222,11111222,11111222' 
TABS,ioos:station:wmo:42045:1,2006-12-03T03:30:00Z,26.2168,-96.4998,4.0,7.390115019,101.9489462,9.04,'11111222,11111222,11111222' 
TABS,ioos:station:wmo:42045:1,2006-12-03T04:00:00Z,26.2168,-96.4998,4.0,7.72308876,97.8891946,9.77,'11111222,11111222,11111222' 
TABS,ioos:station:wmo:42045:1,2006-12-03T04:30:00Z,26.2168,-96.4998,4.0,7.901828902,103.9135288,10.98,'11111222,11111222,11111222' 
TABS,ioos:station:wmo:42045:1,2006-12-03T05:00:00Z,26.2168,-96.4998,4.0,7.931632871,103.2657275,9.79,'11111222,11111222,11111222' 
TABS,ioos:station:wmo:42045:1,2006-12-03T05:30:00Z,26.2168,-96.4998,4.0,8.590023283,89.86617852,10.91,'11111222,11111222,11111222' 
TABS,ioos:station:wmo:42045:1,2006-12-03T06:00:00Z,26.2168,-96.4998,4.0,8.363217084,93.22204582,10.67,'11111222,11111222,11111222' 
TABS,ioos:station:wmo:42045:1,2006-12-03T06:30:00Z,26.2168,-96.4998,4.0,8.400059524,94.84901776,11.48,'11111222,11111222,11111222' 
TABS,ioos:station:wmo:42045:1,2006-12-03T07:00:00Z,26.2168,-96.4998,4.0,8.000025,89.85634027,10.43,'11111222,11111222,11111222' 
TABS,ioos:station:wmo:42045:1,2006-12-03T07:30:00Z,26.2168,-96.4998,4.0,7.212246529,91.43052832,9.66,'11111222,11111222,11111222' 
TABS,ioos:station:wmo:42045:1,2006-12-03T08:00:00Z,26.2168,-96.4998,4.0,8.653993298,80.68966068,11.41,'11111222,11111222,11111222' 
TABS,ioos:station:wmo:42045:1,2006-12-03T08:30:00Z,26.2168,-96.4998,4.0,8.1441083,74.03489322,10.52,'11111222,11111222,11111222' 
TABS,ioos:station:wmo:42045:1,2006-12-03T09:00:00Z,26.2168,-96.4998,4.0,8.820521527,77.16079283,11.15,'11111222,11111222,11111222' 
TABS,ioos:station:wmo:42045:1,2006-12-03T09:30:00Z,26.2168,-96.4998,4.0,8.663584708,75.56236963,10.96,'11111222,11111222,11111222' 
TABS,ioos:station:wmo:42045:1,2006-12-03T10:00:00Z,26.2168,-96.4998,4.0,8.840526002,74.0453181,11.92,'11111222,11111222,11111222' 
TABS,ioos:station:wmo:42045:1,2006-12-03T10:30:00Z,26.2168,-96.4998,4.0,8.84348913,74.45469609,11.63,'11111222,11111222,11111222' 
TABS,ioos:station:wmo:42045:1,2006-12-03T11:00:00Z,26.2168,-96.4998,4.0,8.53899877,80.8351166,11.05,'11111222,11111222,11111222' 
TABS,ioos:station:wmo:42045:1,2006-12-03T11:30:00Z,26.2168,-96.4998,4.0,9.079917401,70.70660003,11.7,'11111222,11111222,11111222' 
TABS,ioos:station:wmo:42045:1,2006-12-03T12:00:00Z,26.2168,-96.4998,4.0,9.276815186,66.6956157,11.65,'11111222,11111222,11111222' 
TABS,ioos:station:wmo:42045:1,2006-12-03T12:30:00Z,26.2168,-96.4998,4.0,9.812405414,62.83397399,12.51,'11111222,11111222,11111222' 
TABS,ioos:station:wmo:42045:1,2006-12-03T13:00:00Z,26.2168,-96.4998,4.0,10.01383543,59.18308331,12.83,'11111222,11111222,11111222' 
TABS,ioos:station:wmo:42045:1,2006-12-03T13:30:00Z,26.2168,-96.4998,4.0,11.04838902,60.85941433,15.04,'11111222,11111222,11111222' 
TABS,ioos:station:wmo:42045:1,2006-12-03T14:00:00Z,26.2168,-96.4998,4.0,11.62809099,63.98549272,15.15,'11111222,11111222,11111222' 
TABS,ioos:station:wmo:42045:1,2006-12-03T14:30:00Z,26.2168,-96.4998,4.0,10.99470782,51.12825896,14.66,'11111222,11111222,11111222' 
TABS,ioos:station:wmo:42045:1,2006-12-03T15:00:00Z,26.2168,-96.4998,4.0,11.51951388,47.11036215,15.63,'11111222,11111222,11111222' 
TABS,ioos:station:wmo:42045:1,2006-12-03T15:30:00Z,26.2168,-96.4998,4.0,12.26209199,50.19410107,15.63,'11111222,11111222,11111222' 
TABS,ioos:station:wmo:42045:1,2006-12-03T16:00:00Z,26.2168,-96.4998,4.0,12.03020366,51.61506863,15.83,'11111222,11111222,11111222' 
TABS,ioos:station:wmo:42045:1,2006-12-03T16:30:00Z,26.2168,-96.4998,4.0,11.15839594,52.64709484,16.58,'11111222,11111222,11111222' 
TABS,ioos:station:wmo:42045:1,2006-12-03T17:00:00Z,26.2168,-96.4998,4.0,11.46694816,49.3496033,15.31,'11111222,11111222,11111222' 
TABS,ioos:station:wmo:42045:1,2006-12-03T17:30:00Z,26.2168,-96.4998,4.0,11.57404424,52.97135604,14.85,'11111222,11111222,11111222' 
TABS,ioos:station:wmo:42045:1,2006-12-03T18:00:00Z,26.2168,-96.4998,4.0,11.27365957,39.88986072,15.14,'11111222,11111222,11111222' 
TABS,ioos:station:wmo:42045:1,2006-12-03T18:30:00Z,26.2168,-96.4998,4.0,10.8450219,38.22220753,14.41,'11111222,11111222,11111222' 
TABS,ioos:station:wmo:42045:1,2006-12-03T19:00:00Z,26.2168,-96.4998,4.0,10.90692441,36.12363343,14.27,'11111222,11111222,11111222' 
TABS,ioos:station:wmo:42045:1,2006-12-03T19:30:00Z,26.2168,-96.4998,4.0,11.24132554,31.83761465,15.47,'11111222,11111222,11111222' 
TABS,ioos:station:wmo:42045:1,2006-12-03T20:00:00Z,26.2168,-96.4998,4.0,10.95374365,30.6853852,14.54,'11111222,11111222,11111222' 
TABS,ioos:station:wmo:42045:1,2006-12-03T20:30:00Z,26.2168,-96.4998,4.0,11.57765088,28.02563375,14.99,'11111222,11111222,11111222' 
TABS,ioos:station:wmo:42045:1,2006-12-03T21:00:00Z,26.2168,-96.4998,4.0,10.84111157,22.16427078,15.51,'11111222,11111222,11111222' 
TABS,ioos:station:wmo:42045:1,2006-12-03T21:30:00Z,26.2168,-96.4998,4.0,11.4753867,30.47538926,14.97,'11111222,11111222,11111222' 
TABS,ioos:station:wmo:42045:1,2006-12-03T22:00:00Z,26.2168,-96.4998,4.0,10.82800074,17.96616654,14.89,'11111222,11111222,11111222' 
TABS,ioos:station:wmo:42045:1,2006-12-03T22:30:00Z,26.2168,-96.4998,4.0,10.86626431,23.82837941,14.56,'11111222,11111222,11111222' 
TABS,ioos:station:wmo:42045:1,2006-12-03T23:00:00Z,26.2168,-96.4998,4.0,10.98573621,21.80114805,14.54,'11111222,11111222,11111222' 
TABS,ioos:station:wmo:42045:1,2006-12-03T23:30:00Z,26.2168,-96.4998,4.0,10.79946758,18.01526171,14.77,'11111222,11111222,11111222' 
TABS,ioos:station:wmo:42045:1,2006-12-04T00:00:00Z,26.2168,-96.4998,4.0,10.81545653,14.72983594,16.18,'11111222,11111222,11111222' 
TABS,ioos:station:wmo:42045:1,2006-12-04T00:30:00Z,26.2168,-96.4998,4.0,11.62805659,17.98282164,15.55,'11111222,11111222,11111222' 
TABS,ioos:station:wmo:42045:1,2006-12-04T01:00:00Z,26.2168,-96.4998,4.0,11.41389066,5.026051087,15.78,'11111222,11111222,11111222' 
TABS,ioos:station:wmo:42045:1,2006-12-04T01:30:00Z,26.2168,-96.4998,4.0,10.74284878,8.672943308,16.96,'11111222,11111222,11111222' 
TABS,ioos:station:wmo:42045:1,2006-12-04T02:00:00Z,26.2168,-96.4998,4.0,11.27929962,12.54509713,16.16,'11111222,11111222,11111222' 
TABS,ioos:station:wmo:42045:1,2006-12-04T02:30:00Z,26.2168,-96.4998,4.0,11.7841631,6.431244237,15.62,'11111222,11111222,11111222' 
TABS,ioos:station:wmo:42045:1,2006-12-04T03:00:00Z,26.2168,-96.4998,4.0,11.00621643,11.63639564,15.08,'11111222,11111222,11111222' 
TABS,ioos:station:wmo:42045:1,2006-12-04T03:30:00Z,26.2168,-96.4998,4.0,11.84585159,20.30104042,16.75,'11111222,11111222,11111222' 
TABS,ioos:station:wmo:42045:1,2006-12-04T04:00:00Z,26.2168,-96.4998,4.0,11.4424167,20.03418567,15.53,'11111222,11111222,11111222' 
TABS,ioos:station:wmo:42045:1,2006-12-04T04:30:00Z,26.2168,-96.4998,4.0,10.97533599,19.59035845,15.2,'11111222,11111222,11111222' 
TABS,ioos:station:wmo:42045:1,2006-12-04T05:00:00Z,26.2168,-96.4998,4.0,10.92628482,11.93703262,14.99,'11111222,11111222,11111222' 
TABS,ioos:station:wmo:42045:1,2006-12-04T05:30:00Z,26.2168,-96.4998,4.0,10.62555881,15.27851914,15.07,'11111222,11111222,11111222' 
TABS,ioos:station:wmo:42045:1,2006-12-04T06:00:00Z,26.2168,-96.4998,4.0,9.852070848,12.18793948,13.78,'11111222,11111222,11111222' 
TABS,ioos:station:wmo:42045:1,2006-12-04T06:30:00Z,26.2168,-96.4998,4.0,9.566828105,7.26592952,13.37,'11111222,11111222,11111222' 
TABS,ioos:station:wmo:42045:1,2006-12-04T07:00:00Z,26.2168,-96.4998,4.0,9.487533926,15.77924259,13.32,'11111222,11111222,11111222' 
TABS,ioos:station:wmo:42045:1,2006-12-04T07:30:00Z,26.2168,-96.4998,4.0,9.388556865,13.99159644,13.82,'11111222,11111222,11111222' 
TABS,ioos:station:wmo:42045:1,2006-12-04T08:00:00Z,26.2168,-96.4998,4.0,9.314918142,6.224492287,12.63,'11111222,11111222,11111222' 
TABS,ioos:station:wmo:42045:1,2006-12-04T08:30:00Z,26.2168,-96.4998,4.0,9.370688342,8.406577744,12.55,'11111222,11111222,11111222' 
TABS,ioos:station:wmo:42045:1,2006-12-04T09:00:00Z,26.2168,-96.4998,4.0,9.931953484,356.189561,12.85,'11111222,11111222,11111222' 
TABS,ioos:station:wmo:42045:1,2006-12-04T09:30:00Z,26.2168,-96.4998,4.0,9.331736173,358.8945444,12.21,'11111222,11111222,11111222' 
TABS,ioos:station:wmo:42045:1,2006-12-04T10:00:00Z,26.2168,-96.4998,4.0,9.326290795,353.1643518,13.06,'11111222,11111222,11111222' 
TABS,ioos:station:wmo:42045:1,2006-12-04T10:30:00Z,26.2168,-96.4998,4.0,9.38128456,357.1892395,13.4,'11111222,11111222,11111222' 
TABS,ioos:station:wmo:42045:1,2006-12-04T11:00:00Z,26.2168,-96.4998,4.0,9.604316738,353.9033663,12.71,'11111222,11111222,11111222' 
TABS,ioos:station:wmo:42045:1,2006-12-04T11:30:00Z,26.2168,-96.4998,4.0,9.26180328,349.6119702,12.22,'11111222,11111222,11111222' 
TABS,ioos:station:wmo:42045:1,2006-12-04T12:00:00Z,26.2168,-96.4998,4.0,9.319710296,352.0435923,12.63,'11111222,11111222,11111222' 
TABS,ioos:station:wmo:42045:1,2006-12-04T12:30:00Z,26.2168,-96.4998,4.0,9.395451027,358.0479776,12.04,'11111222,11111222,11111222' 
TABS,ioos:station:wmo:42045:1,2006-12-04T13:00:00Z,26.2168,-96.4998,4.0,8.970406903,11.51011677,12.31,'11111222,11111222,11111222' 
TABS,ioos:station:wmo:42045:1,2006-12-04T13:30:00Z,26.2168,-96.4998,4.0,8.962170496,4.030738405,11.73,'11111222,11111222,11111222' 
TABS,ioos:station:wmo:42045:1,2006-12-04T14:00:00Z,26.2168,-96.4998,4.0,8.491654727,8.874178173,11.94,'11111222,11111222,11111222' 
TABS,ioos:station:wmo:42045:1,2006-12-04T14:30:00Z,26.2168,-96.4998,4.0,8.743866422,1.70373414,12.52,'11111222,11111222,11111222' 
TABS,ioos:station:wmo:42045:1,2006-12-04T15:00:00Z,26.2168,-96.4998,4.0,8.2185461,23.44548555,11.52,'11111222,11111222,11111222' 
TABS,ioos:station:wmo:42045:1,2006-12-04T15:30:00Z,26.2168,-96.4998,4.0,8.888835694,27.97741963,11.35,'11111222,11111222,11111222' 
TABS,ioos:station:wmo:42045:1,2006-12-04T16:00:00Z,26.2168,-96.4998,4.0,8.77906601,17.77425597,12.46,'11111222,11111222,11111222' 
TABS,ioos:station:wmo:42045:1,2006-12-04T16:30:00Z,26.2168,-96.4998,4.0,8.915884701,28.03062925,12.21,'11111222,11111222,11111222' 
TABS,ioos:station:wmo:42045:1,2006-12-04T17:00:00Z,26.2168,-96.4998,4.0,9.043765809,30.27895747,12.24,'11111222,11111222,11111222' 
TABS,ioos:station:wmo:42045:1,2006-12-04T17:30:00Z,26.2168,-96.4998,4.0,8.110887744,30.20022305,11.22,'11111222,11111222,11111222' 
TABS,ioos:station:wmo:42045:1,2006-12-04T18:00:00Z,26.2168,-96.4998,4.0,7.91904666,15.52773713,11.04,'11111222,11111222,11111222' 
TABS,ioos:station:wmo:42045:1,2006-12-04T18:30:00Z,26.2168,-96.4998,4.0,7.456869316,20.1600924,10.46,'11111222,11111222,11111222' 